Time,TemperatureF,DewpointF,PressureIn,WindDirection,WindDirectionDegrees,WindSpeedMPH,WindSpeedGustMPH,Humidity,HourlyPrecipIn,Conditions,Clouds,dailyrainin,SoftwareType,DateUTC
2013-02-19 00:05:00,25.3,23.3,29.47,WNW,301,9.0,22.0,92,0.00,,,0.16,Wunderground v.1.13,2013-02-19 06:05:00,
2013-02-19 00:15:00,25.0,23.0,29.47,West,280,6.0,22.0,92,0.00,,,0.16,Wunderground v.1.13,2013-02-19 06:15:00,
2013-02-19 00:20:00,24.7,22.7,29.47,West,271,6.0,6.0,92,0.00,,,0.16,Wunderground v.1.13,2013-02-19 06:20:00,
2013-02-19 00:30:00,24.1,22.1,29.47,WNW,297,7.0,22.0,92,0.00,,,0.16,Wunderground v.1.13,2013-02-19 06:30:00,
2013-02-19 00:40:00,23.3,20.8,29.48,WNW,286,9.0,9.0,90,0.00,,,0.16,Wunderground v.1.13,2013-02-19 06:40:00,
2013-02-19 00:50:00,23.2,20.7,29.48,WNW,288,8.0,8.0,90,0.00,,,0.16,Wunderground v.1.13,2013-02-19 06:50:00,
2013-02-19 00:55:00,23.2,20.4,29.48,West,270,6.0,6.0,89,0.00,,,0.16,Wunderground v.1.13,2013-02-19 06:55:00,
2013-02-19 01:00:00,22.9,19.9,29.48,West,280,7.0,22.0,88,0.00,,,0.16,Wunderground v.1.13,2013-02-19 07:00:00,
2013-02-19 01:05:00,22.5,19.5,29.48,West,272,8.0,8.0,88,0.00,,,0.16,Wunderground v.1.13,2013-02-19 07:05:00,
2013-02-19 01:15:00,22.2,18.9,29.48,West,264,7.0,7.0,87,0.00,,,0.16,Wunderground v.1.13,2013-02-19 07:15:00,
2013-02-19 01:25:00,21.8,18.5,29.49,West,279,7.0,7.0,87,0.00,,,0.16,Wunderground v.1.13,2013-02-19 07:25:00,
2013-02-19 01:35:00,21.4,18.1,29.50,WNW,294,6.0,20.0,87,0.00,,,0.16,Wunderground v.1.13,2013-02-19 07:35:00,
2013-02-19 01:40:00,21.3,17.8,29.50,West,263,8.0,8.0,86,0.00,,,0.16,Wunderground v.1.13,2013-02-19 07:40:00,
2013-02-19 01:50:00,20.6,17.1,29.50,West,260,8.0,20.0,86,0.00,,,0.16,Wunderground v.1.13,2013-02-19 07:50:00,
2013-02-19 01:55:00,20.6,17.3,29.50,WSW,258,8.0,8.0,87,0.00,,,0.16,Wunderground v.1.13,2013-02-19 07:55:00,
2013-02-19 02:00:00,20.6,17.3,29.50,WSW,254,7.0,20.0,87,0.00,,,0.16,Wunderground v.1.13,2013-02-19 08:00:00,
2013-02-19 02:05:00,20.6,17.3,29.51,West,267,6.0,16.0,87,0.00,,,0.16,Wunderground v.1.13,2013-02-19 08:05:00,
2013-02-19 02:15:00,20.3,17.3,29.51,West,278,7.0,7.0,88,0.00,,,0.16,Wunderground v.1.13,2013-02-19 08:15:00,
2013-02-19 02:20:00,20.2,17.2,29.52,West,259,7.0,7.0,88,0.00,,,0.16,Wunderground v.1.13,2013-02-19 08:20:00,
2013-02-19 02:30:00,19.5,16.5,29.52,WNW,298,7.0,16.0,88,0.00,,,0.16,Wunderground v.1.13,2013-02-19 08:30:00,
2013-02-19 02:35:00,19.2,16.2,29.52,West,270,8.0,8.0,88,0.00,,,0.16,Wunderground v.1.13,2013-02-19 08:35:00,
2013-02-19 02:45:00,18.9,15.9,29.52,West,273,8.0,16.0,88,0.00,,,0.16,Wunderground v.1.13,2013-02-19 08:45:00,
2013-02-19 02:55:00,18.8,15.8,29.53,WSW,258,7.0,16.0,88,0.00,,,0.16,Wunderground v.1.13,2013-02-19 08:55:00,
2013-02-19 03:00:00,18.8,15.8,29.53,West,260,7.0,7.0,88,0.00,,,0.16,Wunderground v.1.13,2013-02-19 09:00:00,
2013-02-19 03:05:00,18.6,15.6,29.54,West,271,6.0,6.0,88,0.00,,,0.16,Wunderground v.1.13,2013-02-19 09:05:00,
2013-02-19 03:15:00,18.3,15.3,29.54,West,259,6.0,16.0,88,0.00,,,0.16,Wunderground v.1.13,2013-02-19 09:15:00,
2013-02-19 03:25:00,18.0,14.8,29.54,West,274,6.0,6.0,87,0.00,,,0.16,Wunderground v.1.13,2013-02-19 09:25:00,
2013-02-19 03:35:00,17.8,14.6,29.55,West,279,7.0,16.0,87,0.00,,,0.16,Wunderground v.1.13,2013-02-19 09:35:00,
2013-02-19 03:45:00,17.5,14.0,29.55,West,267,7.0,16.0,86,0.00,,,0.16,Wunderground v.1.13,2013-02-19 09:45:00,
2013-02-19 03:50:00,17.2,13.7,29.55,WNW,292,7.0,16.0,86,0.00,,,0.16,Wunderground v.1.13,2013-02-19 09:50:00,
2013-02-19 03:55:00,17.2,13.7,29.55,WNW,287,8.0,16.0,86,0.00,,,0.16,Wunderground v.1.13,2013-02-19 09:55:00,
2013-02-19 04:05:00,17.2,13.7,29.56,West,259,6.0,19.0,86,0.00,,,0.16,Wunderground v.1.13,2013-02-19 10:05:00,
2013-02-19 04:15:00,16.7,13.0,29.56,West,267,6.0,6.0,85,0.00,,,0.16,Wunderground v.1.13,2013-02-19 10:15:00,
2013-02-19 04:20:00,16.5,12.8,29.56,West,274,6.0,19.0,85,0.00,,,0.16,Wunderground v.1.13,2013-02-19 10:20:00,
2013-02-19 04:25:00,16.4,12.4,29.56,WNW,285,7.0,19.0,84,0.00,,,0.16,Wunderground v.1.13,2013-02-19 10:25:00,
2013-02-19 04:30:00,16.2,12.2,29.56,West,259,7.0,7.0,84,0.00,,,0.16,Wunderground v.1.13,2013-02-19 10:30:00,
2013-02-19 04:35:00,16.1,12.1,29.57,West,266,7.0,7.0,84,0.00,,,0.16,Wunderground v.1.13,2013-02-19 10:35:00,
2013-02-19 04:45:00,15.9,11.9,29.57,WNW,288,7.0,19.0,84,0.00,,,0.16,Wunderground v.1.13,2013-02-19 10:45:00,
2013-02-19 04:50:00,15.9,11.9,29.58,WSW,257,7.0,7.0,84,0.00,,,0.16,Wunderground v.1.13,2013-02-19 10:50:00,
2013-02-19 04:55:00,15.7,12.0,29.58,WSW,254,5.0,5.0,85,0.00,,,0.16,Wunderground v.1.13,2013-02-19 10:55:00,
2013-02-19 05:05:00,15.2,11.2,29.58,West,263,5.0,16.0,84,0.00,,,0.00,Wunderground v.1.13,2013-02-19 11:05:00,
2013-02-19 05:15:00,15.1,11.1,29.58,West,267,6.0,6.0,84,0.00,,,0.00,Wunderground v.1.13,2013-02-19 11:15:00,
2013-02-19 05:25:00,14.8,10.8,29.59,WSW,255,8.0,8.0,84,0.00,,,0.00,Wunderground v.1.13,2013-02-19 11:25:00,
2013-02-19 05:35:00,14.8,10.8,29.59,West,267,7.0,16.0,84,0.00,,,0.00,Wunderground v.1.13,2013-02-19 11:35:00,
2013-02-19 05:40:00,14.6,10.6,29.59,WSW,255,7.0,7.0,84,0.00,,,0.00,Wunderground v.1.13,2013-02-19 11:40:00,
2013-02-19 05:50:00,14.6,10.4,29.61,WNW,282,6.0,16.0,83,0.00,,,0.00,Wunderground v.1.13,2013-02-19 11:50:00,
2013-02-19 06:00:00,14.4,10.7,29.61,WNW,293,7.0,16.0,85,0.00,,,0.00,Wunderground v.1.13,2013-02-19 12:00:00,
2013-02-19 06:05:00,14.3,10.6,29.61,West,269,7.0,7.0,85,0.00,,,0.00,Wunderground v.1.13,2013-02-19 12:05:00,
2013-02-19 06:15:00,14.1,10.4,29.61,WNW,288,7.0,7.0,85,0.00,,,0.00,Wunderground v.1.13,2013-02-19 12:15:00,
2013-02-19 06:25:00,14.1,10.7,29.62,WSW,257,5.0,19.0,86,0.00,,,0.00,Wunderground v.1.13,2013-02-19 12:25:00,
2013-02-19 06:30:00,14.1,10.7,29.62,WNW,283,6.0,6.0,86,0.00,,,0.00,Wunderground v.1.13,2013-02-19 12:30:00,
2013-02-19 06:35:00,14.0,10.3,29.63,West,263,7.0,7.0,85,0.00,,,0.00,Wunderground v.1.13,2013-02-19 12:35:00,
2013-02-19 06:45:00,13.8,10.1,29.63,West,274,5.0,5.0,85,0.00,,,0.00,Wunderground v.1.13,2013-02-19 12:45:00,
2013-02-19 06:50:00,13.6,9.9,29.64,WSW,255,5.0,19.0,85,0.00,,,0.00,Wunderground v.1.13,2013-02-19 12:50:00,
2013-02-19 06:55:00,13.5,9.8,29.64,West,281,5.0,19.0,85,0.00,,,0.00,Wunderground v.1.13,2013-02-19 12:55:00,
2013-02-19 07:00:00,13.5,9.8,29.64,West,272,7.0,7.0,85,0.00,,,0.00,Wunderground v.1.13,2013-02-19 13:00:00,
2013-02-19 07:05:00,13.3,9.6,29.65,West,267,6.0,14.0,85,0.00,,,0.00,Wunderground v.1.13,2013-02-19 13:05:00,
2013-02-19 07:15:00,13.3,9.6,29.65,WSW,254,6.0,14.0,85,0.00,,,0.00,Wunderground v.1.13,2013-02-19 13:15:00,
2013-02-19 07:20:00,13.3,9.6,29.66,West,263,6.0,6.0,85,0.00,,,0.00,Wunderground v.1.13,2013-02-19 13:20:00,
2013-02-19 07:25:00,13.3,9.9,29.66,West,277,6.0,6.0,86,0.00,,,0.00,Wunderground v.1.13,2013-02-19 13:25:00,
2013-02-19 07:35:00,13.3,9.9,29.67,West,260,4.0,14.0,86,0.00,,,0.00,Wunderground v.1.13,2013-02-19 13:35:00,
2013-02-19 07:45:00,13.5,10.1,29.67,West,277,5.0,14.0,86,0.00,,,0.00,Wunderground v.1.13,2013-02-19 13:45:00,
2013-02-19 07:55:00,13.5,10.1,29.67,West,269,6.0,6.0,86,0.00,,,0.00,Wunderground v.1.13,2013-02-19 13:55:00,
2013-02-19 08:05:00,13.3,9.6,29.68,West,269,7.0,16.0,85,0.00,,,0.00,Wunderground v.1.13,2013-02-19 14:05:00,
2013-02-19 08:15:00,12.8,9.1,29.68,WNW,298,8.0,18.0,85,0.00,,,0.00,Wunderground v.1.13,2013-02-19 14:15:00,
2013-02-19 08:25:00,12.3,8.4,29.70,WNW,290,10.0,10.0,84,0.00,,,0.00,Wunderground v.1.13,2013-02-19 14:25:00,
2013-02-19 08:30:00,12.3,8.4,29.70,NW,307,8.0,8.0,84,0.00,,,0.00,Wunderground v.1.13,2013-02-19 14:30:00,
2013-02-19 08:40:00,12.4,8.5,29.70,WNW,300,5.0,5.0,84,0.00,,,0.00,Wunderground v.1.13,2013-02-19 14:40:00,
2013-02-19 08:50:00,12.6,8.7,29.71,West,271,6.0,6.0,84,0.00,,,0.00,Wunderground v.1.13,2013-02-19 14:50:00,
2013-02-19 09:00:00,12.4,8.7,29.71,West,274,6.0,16.0,85,0.00,,,0.00,Wunderground v.1.13,2013-02-19 15:00:00,
2013-02-19 09:05:00,12.3,8.4,29.72,West,259,8.0,19.0,84,0.00,,,0.00,Wunderground v.1.13,2013-02-19 15:05:00,
2013-02-19 09:15:00,11.7,7.5,29.72,WNW,300,11.0,11.0,83,0.00,,,0.00,Wunderground v.1.13,2013-02-19 15:15:00,
2013-02-19 09:25:00,11.9,8.0,29.72,West,269,7.0,7.0,84,0.00,,,0.00,Wunderground v.1.13,2013-02-19 15:25:00,
2013-02-19 09:35:00,12.4,8.5,29.73,WNW,282,7.0,19.0,84,0.00,,,0.00,Wunderground v.1.13,2013-02-19 15:35:00,
2013-02-19 09:45:00,12.1,7.9,29.73,WNW,302,8.0,19.0,83,0.00,,,0.00,Wunderground v.1.13,2013-02-19 15:45:00,
2013-02-19 09:50:00,11.7,7.5,29.74,NW,319,9.0,19.0,83,0.00,,,0.00,Wunderground v.1.13,2013-02-19 15:50:00,
2013-02-19 10:00:00,11.2,7.0,29.74,WNW,286,10.0,10.0,83,0.00,,,0.00,Wunderground v.1.13,2013-02-19 16:00:00,
2013-02-19 10:05:00,11.4,7.2,29.75,NW,305,9.0,9.0,83,0.00,,,0.00,Wunderground v.1.13,2013-02-19 16:05:00,
2013-02-19 10:15:00,11.7,7.5,29.75,NW,311,8.0,22.0,83,0.00,,,0.00,Wunderground v.1.13,2013-02-19 16:15:00,
2013-02-19 10:20:00,11.6,6.9,29.76,West,271,10.0,10.0,81,0.00,,,0.00,Wunderground v.1.13,2013-02-19 16:20:00,
2013-02-19 10:25:00,11.4,6.7,29.76,West,273,10.0,10.0,81,0.00,,,0.00,Wunderground v.1.13,2013-02-19 16:25:00,
2013-02-19 10:30:00,11.4,6.4,29.76,WNW,289,10.0,10.0,80,0.00,,,0.00,Wunderground v.1.13,2013-02-19 16:30:00,
2013-02-19 10:35:00,11.2,6.2,29.77,NW,311,10.0,22.0,80,0.00,,,0.00,Wunderground v.1.13,2013-02-19 16:35:00,
2013-02-19 10:40:00,11.6,6.6,29.77,WNW,289,8.0,8.0,80,0.00,,,0.00,Wunderground v.1.13,2013-02-19 16:40:00,
2013-02-19 10:50:00,11.7,6.7,29.78,West,277,8.0,8.0,80,0.00,,,0.00,Wunderground v.1.13,2013-02-19 16:50:00,
2013-02-19 10:55:00,11.7,6.7,29.78,WNW,288,7.0,7.0,80,0.00,,,0.00,Wunderground v.1.13,2013-02-19 16:55:00,
2013-02-19 11:05:00,12.1,7.1,29.78,West,281,6.0,23.0,80,0.00,,,0.00,Wunderground v.1.13,2013-02-19 17:05:00,
2013-02-19 11:15:00,12.1,7.1,29.78,West,265,7.0,7.0,80,0.00,,,0.00,Wunderground v.1.13,2013-02-19 17:15:00,
2013-02-19 11:20:00,11.9,6.6,29.79,WNW,290,9.0,23.0,79,0.00,,,0.00,Wunderground v.1.13,2013-02-19 17:20:00,
2013-02-19 11:30:00,12.3,7.3,29.79,West,263,9.0,23.0,80,0.00,,,0.00,Wunderground v.1.13,2013-02-19 17:30:00,
2013-02-19 11:40:00,12.6,7.3,29.81,West,273,8.0,8.0,79,0.00,,,0.00,Wunderground v.1.13,2013-02-19 17:40:00,
2013-02-19 11:45:00,12.6,6.8,29.81,WNW,284,8.0,23.0,77,0.00,,,0.00,Wunderground v.1.13,2013-02-19 17:45:00,
2013-02-19 11:55:00,12.4,6.3,29.81,West,273,9.0,9.0,76,0.00,,,0.00,Wunderground v.1.13,2013-02-19 17:55:00,
2013-02-19 12:00:00,12.4,6.3,29.81,West,280,8.0,23.0,76,0.00,,,0.00,Wunderground v.1.13,2013-02-19 18:00:00,
2013-02-19 12:05:00,12.4,6.3,29.81,WSW,240,8.0,8.0,76,0.00,,,0.00,Wunderground v.1.13,2013-02-19 18:05:00,
2013-02-19 12:15:00,11.9,5.2,29.81,WNW,297,9.0,20.0,74,0.00,,,0.00,Wunderground v.1.13,2013-02-19 18:15:00,
2013-02-19 12:20:00,11.7,5.0,29.82,WNW,285,9.0,9.0,74,0.00,,,0.00,Wunderground v.1.13,2013-02-19 18:20:00,
2013-02-19 12:30:00,12.1,5.1,29.82,West,271,8.0,20.0,73,0.00,,,0.00,Wunderground v.1.13,2013-02-19 18:30:00,
2013-02-19 12:40:00,12.1,5.4,29.82,West,276,8.0,20.0,74,0.00,,,0.00,Wunderground v.1.13,2013-02-19 18:40:00,
2013-02-19 12:50:00,12.3,5.6,29.84,West,276,7.0,7.0,74,0.00,,,0.00,Wunderground v.1.13,2013-02-19 18:50:00,
2013-02-19 13:00:00,12.1,5.1,29.84,WNW,295,8.0,8.0,73,0.00,,,0.00,Wunderground v.1.13,2013-02-19 19:00:00,
2013-02-19 13:05:00,12.1,4.8,29.84,West,267,8.0,8.0,72,0.00,,,0.00,Wunderground v.1.13,2013-02-19 19:05:00,
2013-02-19 13:15:00,12.1,4.8,29.84,WNW,291,7.0,19.0,72,0.00,,,0.00,Wunderground v.1.13,2013-02-19 19:15:00,
2013-02-19 13:25:00,12.3,4.7,29.85,West,277,7.0,19.0,71,0.00,,,0.00,Wunderground v.1.13,2013-02-19 19:25:00,
2013-02-19 13:30:00,11.9,4.0,29.85,West,270,9.0,9.0,70,0.00,,,0.00,Wunderground v.1.13,2013-02-19 19:30:00,
2013-02-19 13:40:00,11.9,4.0,29.86,West,281,8.0,8.0,70,0.00,,,0.00,Wunderground v.1.13,2013-02-19 19:40:00,
2013-02-19 13:45:00,11.7,3.8,29.86,West,275,9.0,19.0,70,0.00,,,0.00,Wunderground v.1.13,2013-02-19 19:45:00,
2013-02-19 13:55:00,11.6,3.7,29.87,West,275,8.0,8.0,70,0.00,,,0.00,Wunderground v.1.13,2013-02-19 19:55:00,
2013-02-19 14:05:00,11.6,3.7,29.87,WNW,284,9.0,9.0,70,0.00,,,0.00,Wunderground v.1.13,2013-02-19 20:05:00,
2013-02-19 14:15:00,11.6,3.7,29.87,West,266,8.0,20.0,70,0.00,,,0.00,Wunderground v.1.13,2013-02-19 20:15:00,
2013-02-19 14:20:00,11.6,3.7,29.88,West,260,9.0,20.0,70,0.00,,,0.00,Wunderground v.1.13,2013-02-19 20:20:00,
2013-02-19 14:30:00,11.6,3.4,29.88,NW,310,9.0,9.0,69,0.00,,,0.00,Wunderground v.1.13,2013-02-19 20:30:00,
2013-02-19 14:40:00,11.4,3.2,29.89,WNW,289,9.0,9.0,69,0.00,,,0.00,Wunderground v.1.13,2013-02-19 20:40:00,
2013-02-19 14:45:00,11.4,2.9,29.89,West,277,10.0,10.0,68,0.00,,,0.00,Wunderground v.1.13,2013-02-19 20:45:00,
2013-02-19 14:55:00,11.7,3.5,29.89,West,273,7.0,7.0,69,0.00,,,0.00,Wunderground v.1.13,2013-02-19 20:55:00,
2013-02-19 15:05:00,11.7,3.5,29.90,WNW,289,8.0,20.0,69,0.00,,,0.00,Wunderground v.1.13,2013-02-19 21:05:00,
2013-02-19 15:15:00,11.6,3.4,29.90,WSW,250,8.0,8.0,69,0.00,,,0.00,Wunderground v.1.13,2013-02-19 21:15:00,
2013-02-19 15:25:00,11.7,3.8,29.91,NW,305,6.0,20.0,70,0.00,,,0.00,Wunderground v.1.13,2013-02-19 21:25:00,
2013-02-19 15:35:00,11.2,2.4,29.93,WNW,289,10.0,20.0,67,0.00,,,0.00,Wunderground v.1.13,2013-02-19 21:35:00,
2013-02-19 15:40:00,11.6,3.4,29.93,NW,304,8.0,20.0,69,0.00,,,0.00,Wunderground v.1.13,2013-02-19 21:40:00,
2013-02-19 15:50:00,12.1,3.6,29.94,West,268,8.0,8.0,68,0.00,,,0.00,Wunderground v.1.13,2013-02-19 21:50:00,
2013-02-19 16:00:00,11.6,2.4,29.94,West,261,7.0,20.0,66,0.00,,,0.00,Wunderground v.1.13,2013-02-19 22:00:00,
2013-02-19 16:05:00,11.2,2.4,29.94,WNW,285,8.0,19.0,67,0.00,,,0.00,Wunderground v.1.13,2013-02-19 22:05:00,
2013-02-19 16:15:00,11.4,2.9,29.94,WNW,289,7.0,7.0,68,0.00,,,0.00,Wunderground v.1.13,2013-02-19 22:15:00,
2013-02-19 16:25:00,11.2,2.4,29.95,WNW,284,6.0,19.0,67,0.00,,,0.00,Wunderground v.1.13,2013-02-19 22:25:00,
2013-02-19 16:35:00,11.1,2.3,29.96,WNW,294,8.0,8.0,67,0.00,,,0.00,Wunderground v.1.13,2013-02-19 22:35:00,
2013-02-19 16:45:00,10.9,1.8,29.96,NW,314,7.0,19.0,66,0.00,,,0.00,Wunderground v.1.13,2013-02-19 22:45:00,
2013-02-19 16:55:00,10.7,1.9,29.97,WNW,302,6.0,6.0,67,0.00,,,0.00,Wunderground v.1.13,2013-02-19 22:55:00,
2013-02-19 17:00:00,10.7,1.9,29.97,West,265,5.0,19.0,67,0.00,,,0.00,Wunderground v.1.13,2013-02-19 23:00:00,
2013-02-19 17:05:00,10.7,1.9,29.97,West,276,6.0,15.0,67,0.00,,,0.00,Wunderground v.1.13,2013-02-19 23:05:00,
2013-02-19 17:15:00,10.4,1.3,29.97,West,270,7.0,7.0,66,0.00,,,0.00,Wunderground v.1.13,2013-02-19 23:15:00,
2013-02-19 17:25:00,10.2,1.1,29.98,NW,304,6.0,15.0,66,0.00,,,0.00,Wunderground v.1.13,2013-02-19 23:25:00,
2013-02-19 17:35:00,10.0,0.9,29.99,WNW,296,7.0,7.0,66,0.00,,,0.00,Wunderground v.1.13,2013-02-19 23:35:00,
2013-02-19 17:40:00,9.9,0.8,29.99,WNW,285,6.0,15.0,66,0.00,,,0.00,Wunderground v.1.13,2013-02-19 23:40:00,
2013-02-19 17:45:00,9.9,0.8,29.99,NW,315,6.0,15.0,66,0.00,,,0.00,Wunderground v.1.13,2013-02-19 23:45:00,
2013-02-19 17:55:00,10.0,0.9,30.00,NW,304,6.0,15.0,66,0.00,,,0.00,Wunderground v.1.13,2013-02-19 23:55:00,
2013-02-19 18:05:00,10.4,1.3,30.01,West,275,6.0,6.0,66,0.00,,,0.00,Wunderground v.1.13,2013-02-20 00:05:00,
2013-02-19 18:15:00,10.4,1.0,30.01,WNW,301,7.0,7.0,65,0.00,,,0.00,Wunderground v.1.13,2013-02-20 00:15:00,
2013-02-19 18:25:00,10.4,1.3,30.02,WNW,300,7.0,15.0,66,0.00,,,0.00,Wunderground v.1.13,2013-02-20 00:25:00,
2013-02-19 18:30:00,10.2,0.4,30.02,NNW,327,8.0,15.0,64,0.00,,,0.00,Wunderground v.1.13,2013-02-20 00:30:00,
2013-02-19 18:40:00,10.0,0.6,30.03,NW,304,7.0,7.0,65,0.00,,,0.00,Wunderground v.1.13,2013-02-20 00:40:00,
2013-02-19 18:45:00,10.0,0.6,30.03,West,274,6.0,6.0,65,0.00,,,0.00,Wunderground v.1.13,2013-02-20 00:45:00,
2013-02-19 18:50:00,10.0,0.6,30.04,WNW,289,5.0,15.0,65,0.00,,,0.00,Wunderground v.1.13,2013-02-20 00:50:00,
2013-02-19 19:00:00,9.7,0.0,30.04,WNW,298,7.0,15.0,64,0.00,,,0.00,Wunderground v.1.13,2013-02-20 01:00:00,
2013-02-19 19:05:00,9.5,-0.2,30.05,WNW,292,7.0,18.0,64,0.00,,,0.00,Wunderground v.1.13,2013-02-20 01:05:00,
2013-02-19 19:15:00,9.3,-0.4,30.05,WNW,292,6.0,6.0,64,0.00,,,0.00,Wunderground v.1.13,2013-02-20 01:15:00,
2013-02-19 19:25:00,9.0,-0.4,30.06,West,274,4.0,18.0,65,0.00,,,0.00,Wunderground v.1.13,2013-02-20 01:25:00,
2013-02-19 19:35:00,8.6,-0.8,30.06,WNW,301,4.0,18.0,65,0.00,,,0.00,Wunderground v.1.13,2013-02-20 01:35:00,
2013-02-19 19:40:00,8.6,-0.8,30.06,WNW,284,4.0,18.0,65,0.00,,,0.00,Wunderground v.1.13,2013-02-20 01:40:00,
2013-02-19 19:45:00,8.6,-0.8,30.06,WNW,288,5.0,18.0,65,0.00,,,0.00,Wunderground v.1.13,2013-02-20 01:45:00,
2013-02-19 19:55:00,8.4,-1.0,30.07,NW,326,6.0,18.0,65,0.00,,,0.00,Wunderground v.1.13,2013-02-20 01:55:00,
2013-02-19 20:05:00,8.4,-1.3,30.08,NW,315,6.0,13.0,64,0.00,,,0.00,Wunderground v.1.13,2013-02-20 02:05:00,
2013-02-19 20:15:00,8.3,-1.4,30.08,WNW,302,7.0,13.0,64,0.00,,,0.00,Wunderground v.1.13,2013-02-20 02:15:00,
2013-02-19 20:25:00,8.1,-1.6,30.09,West,275,4.0,13.0,64,0.00,,,0.00,Wunderground v.1.13,2013-02-20 02:25:00,
2013-02-19 20:35:00,8.1,-1.6,30.10,West,280,5.0,5.0,64,0.00,,,0.00,Wunderground v.1.13,2013-02-20 02:35:00,
2013-02-19 20:40:00,8.1,-1.6,30.10,WNW,290,5.0,5.0,64,0.00,,,0.00,Wunderground v.1.13,2013-02-20 02:40:00,
2013-02-19 20:50:00,8.1,-1.6,30.10,WNW,282,4.0,13.0,64,0.00,,,0.00,Wunderground v.1.13,2013-02-20 02:50:00,
2013-02-19 20:55:00,7.9,-1.8,30.10,WNW,284,4.0,4.0,64,0.00,,,0.00,Wunderground v.1.13,2013-02-20 02:55:00,
2013-02-19 21:00:00,7.9,-1.8,30.10,West,265,4.0,4.0,64,0.00,,,0.00,Wunderground v.1.13,2013-02-20 03:00:00,
2013-02-19 21:05:00,7.9,-1.8,30.11,WNW,290,3.0,14.0,64,0.00,,,0.00,Wunderground v.1.13,2013-02-20 03:05:00,
2013-02-19 21:15:00,7.7,-1.6,30.11,West,277,3.0,3.0,65,0.00,,,0.00,Wunderground v.1.13,2013-02-20 03:15:00,
2013-02-19 21:20:00,7.7,-1.6,30.12,WNW,288,2.0,2.0,65,0.00,,,0.00,Wunderground v.1.13,2013-02-20 03:20:00,
2013-02-19 21:30:00,7.6,-1.7,30.12,WNW,286,2.0,14.0,65,0.00,,,0.00,Wunderground v.1.13,2013-02-20 03:30:00,
2013-02-19 21:40:00,7.6,-2.1,30.12,NW,310,3.0,14.0,64,0.00,,,0.00,Wunderground v.1.13,2013-02-20 03:40:00,
2013-02-19 21:50:00,7.6,-2.1,30.12,West,275,3.0,14.0,64,0.00,,,0.00,Wunderground v.1.13,2013-02-20 03:50:00,
2013-02-19 21:55:00,7.6,-2.1,30.12,West,281,3.0,3.0,64,0.00,,,0.00,Wunderground v.1.13,2013-02-20 03:55:00,
2013-02-19 22:05:00,7.6,-2.1,30.12,WNW,289,4.0,4.0,64,0.00,,,0.00,Wunderground v.1.13,2013-02-20 04:05:00,
2013-02-19 22:15:00,7.4,-2.2,30.12,WNW,291,3.0,3.0,64,0.00,,,0.00,Wunderground v.1.13,2013-02-20 04:15:00,
2013-02-19 22:25:00,7.4,-2.6,30.13,WSW,258,5.0,5.0,63,0.00,,,0.00,Wunderground v.1.13,2013-02-20 04:25:00,
2013-02-19 22:30:00,7.4,-2.6,30.13,WNW,295,4.0,10.0,63,0.00,,,0.00,Wunderground v.1.13,2013-02-20 04:30:00,
2013-02-19 22:40:00,7.4,-2.6,30.13,WNW,295,4.0,4.0,63,0.00,,,0.00,Wunderground v.1.13,2013-02-20 04:40:00,
2013-02-19 22:45:00,7.2,-2.8,30.13,West,272,4.0,10.0,63,0.00,,,0.00,Wunderground v.1.13,2013-02-20 04:45:00,
2013-02-19 22:55:00,7.2,-2.8,30.13,WNW,294,5.0,10.0,63,0.00,,,0.00,Wunderground v.1.13,2013-02-20 04:55:00,
2013-02-19 23:00:00,7.2,-2.8,30.13,West,269,6.0,6.0,63,0.00,,,0.00,Wunderground v.1.13,2013-02-20 05:00:00,
2013-02-19 23:05:00,7.2,-2.8,30.14,West,269,4.0,12.0,63,0.00,,,0.00,Wunderground v.1.13,2013-02-20 05:05:00,
2013-02-19 23:15:00,7.0,-3.0,30.14,NW,306,3.0,12.0,63,0.00,,,0.00,Wunderground v.1.13,2013-02-20 05:15:00,
2013-02-19 23:25:00,7.0,-3.0,30.14,WNW,294,5.0,5.0,63,0.00,,,0.00,Wunderground v.1.13,2013-02-20 05:25:00,
2013-02-19 23:35:00,6.9,-2.7,30.14,West,267,3.0,12.0,64,0.00,,,0.00,Wunderground v.1.13,2013-02-20 05:35:00,
2013-02-19 23:40:00,6.9,-3.1,30.14,WNW,284,4.0,4.0,63,0.00,,,0.00,Wunderground v.1.13,2013-02-20 05:40:00,
2013-02-19 23:45:00,6.7,-3.2,30.14,West,280,5.0,12.0,63,0.00,,,0.00,Wunderground v.1.13,2013-02-20 05:45:00,
2013-02-19 23:55:00,6.7,-3.2,30.14,WNW,289,5.0,5.0,63,0.00,,,0.00,Wunderground v.1.13,2013-02-20 05:55:00,